CZ-6A DEB

Satellite information

Favourite Embed

Satellite Type and Status

DEBRISIN ORBIT

Key statistics

Satellite CZ-6A DEB at a glance.

Uptime

335

Days in orbit

Revolutions

≈ 14.4

Per day

Orbit

LEO

Low Earth Orbit

Inclination

89.0

Latest

Satellite identification and parameters

Extended collection of information and parameters for CZ-6A DEB.

Object identification

Identified? True

Debris? True

Object name: CZ-6A DEB

International designator: 2024-140MF

Object number (NORAD): 60980

Object ID (CCSDS): 60980

Country: PEOPLES REPUBLIC OF CHINA (PRC)

Current information (Y/N): Y

RCS size: SMALL

Orbital parameters

Period: 100.184 minutes

Inclination: 88.9514 deg

SMA: 7145.388 km

Apoapsis: 775.853 km

Periapsis: 758.653 km

RAAN: 310.6937 deg

Eccentricy: 0.0012036

Argument of periapsis: 43.7943 deg

Mean anomaly: 316.4209 deg

Mean motion: 14.37355036 rev/day

Mean motion (dot): 0.00003447 rev/day2

B* drag term: 0.0011492 1/REarth

Two-line elements (TLE)

Creation date: July 6, 2025, 6:05 p.m.

Reference frame: TEME

Reference center: EARTH

Epoch: July 6, 2025, 9:15 a.m. UTC

TLE line 0: 0 CZ-6A DEB

TLE line 1: 1 60980U 24140MF 25187.38608080 .00003447 00000-0 11492-2 0 9997

TLE line 2: 2 60980 88.9514 310.6937 0012036 43.7943 316.4209 14.37355036 46160

Live tracking on map

Real-time ground track for satellite CZ-6A DEB.

In-orbit conjunctions

A list of the most updated potential collisions computed for object CZ-6A DEB.

Target Orbit TCA Probability of collision Miss distance Type
FENGYUN 1C DEB SSO 2025-03-02 02:45:39 0.0001051881 263.0 (m) DEBRIS
FENGYUN 1C DEB SSO 2025-02-24 06:19:07 0.009119672 32.0 (m) DEBRIS
COSMOS 2251 DEB LEO 2025-02-06 22:47:52 0.0002270039 804.0 (m) DEBRIS
NOAA 16 DEB SSO 2025-02-02 09:36:55 0.0001593359 911.0 (m) DEBRIS
NOAA 16 DEB SSO 2025-01-06 02:43:32 0.0001151978 715.0 (m) DEBRIS

Associated space launch

18 Low Earth Orbit communication satellites with Ku, Q and V band payloads for the G60 constellation operated by Shanghai Spacecom Satellite Technology (SSST) with funding backed by the Shanghai local government. Initial constellation will consist of 1296 satellites by 2027 with long term plans to expand it to 12000 satellites.

CZ-6A DEB was lifted into orbit during the mission ‘Long March 6A | G60 Polar Group 01’, on board a Long March 6A space rocket.

The launch took place on Aug. 6, 2024, 6:42 a.m. from Launch Complex 9A.

For more information about the launch, click the button.

Launch to space Long March 6A | G60 Polar Group 01
Long March 6A | G60 Polar Group 01

Agency: N/A

Status: Launch Successful

Launch date: Aug. 6, 2024, 6:42 a.m. UTC

Rocket: Long March 6A

Launch pad: Launch Complex 9A

Location: Taiyuan Satellite Launch Center, People's Republic of China

...

Latest news about this satellite

News about space launch
Brightness of first Chinese broadband constellation satellites alarms astronomers

The first satellites of a Chinese broadband constellation are significantly brighter than those of Western systems, posing a new challenge for astronomers.

News about space launch
Chinese rocket stage breaks up into cloud of more than 700 pieces of space debris

HELSINKI — A Chinese Long March 6A rocket’s upper stage has fragmented into a cloud of over 700 pieces of space debris, adding to concerns about long-term orbital safety. China […]

News about space launch
China's Thousand Sails Megaconstellation Kicks Off with Dangerous Debris Field

China's Thousand Sails Megaconstellation Kicks Off with Dangerous Debris Field


Newsletter sign-up

Weekly statistics, charts and insights to help you stay on top of the space industry.